[Iaude] MPEC A153: 2024 AV2 [a=1.00,e=0.25,i=5.7,H=26.66]
    mpec at marsden.cfa.harvard.edu 
    mpec at marsden.cfa.harvard.edu
       
    Sat Jan 13 09:15:01 EST 2024
    
    
  
M.P.E.C. 2024-A153                             Issued 2024 January 13, 14:13 UT
     The Minor Planet Electronic Circulars contain information on unusual
         minor planets, routine data on comets and natural satellites,
         and occasional editorial announcements.  They are published
    on behalf of Division F of the International Astronomical Union by the
          Minor Planet Center, Smithsonian Astrophysical Observatory,
                          Cambridge, MA 02138, U.S.A.
			  
             Prepared using the Tamkin Foundation Computer Network
                              MPC at CFA.HARVARD.EDU
            URL https://www.minorplanetcenter.net/    ISSN 1523-6714
                                    2024 AV2                                    
                           Revision to MPEC 2024-A116                           
Additional Observations:
     K24A02V  C2022 01 27.34862508 56 31.617+38 44 43.25         23.54GVEA153F52
     K24A02V  C2022 01 27.36015608 56 27.789+38 45 00.69         22.97GVEA153F52
     K24A02V  C2022 01 27.37158008 56 24.064+38 45 17.05         23.15GVEA153F52
     K24A02V  C2023 01 15.46836808 39 53.768+37 44 05.72         22.14GVEA153F52
     K24A02V  C2023 01 15.47939808 39 47.952+37 44 35.28         21.87GVEA153F52
     K24A02V  C2023 01 15.49042408 39 42.130+37 45 04.82         21.72GVEA153F52
Observer details:
F52 Pan-STARRS 2, Haleakala.  Observers J. Herman, T. Lowe, P. Minguez, A.
    Schultz, I. Smith.  Measurers K. Chambers, T. de Boer, J. Fairlamb, H.
    Gao, M. Huber, C.-C. Lin, E. Magnier, Y. Ramanjooloo, R. Wainscoat, R.
    Weryk.  1.8-m Ritchey-Chretien + CCD.
Orbital elements:
2024 AV2                                                 Earth MOID = 0.0029 AU
Epoch 2023 Sept. 13.0 TT = JDT 2460200.5                Veres                   
M 323.53933              (2000.0)            P               Q                  
n   0.98108390     Peri.  257.53976     +0.99523059     +0.00773287             
a   1.0030716      Node   101.95727     +0.02963469     +0.92577463             
e   0.2535837      Incl.    5.70463     -0.09294004     +0.37799675             
P   1.00           H   26.66          G   0.15           U   2                  
Residuals in seconds of arc
220127 F52  0.5+  0.1-    240109 K88  0.1+  0.3+    240110 654  0.0   0.1+
220127 F52  0.1-  0.1-    240109 K88  0.6-  0.3+    240110 654  0.1+  0.6-
220127 F52 (0.3+  0.8-)   240109 J95  0.1-  0.3+    240110 033  0.9+  1.4-
230115 F52  0.3+  0.1+    240109 033  0.1+  0.0     240110 033  0.1-  0.2+
230115 F52  0.1+  0.0     240109 033  0.1+  0.1+    240110 033  0.2-  0.1+
230115 F52  0.2-  0.2+    240109 033  0.3-  0.1+    240110 033  0.5-  0.3+
240108 F51  0.2-  0.1+    240109 J95  0.1+  0.0     240111 O18  0.2-  0.2+
240108 F51  0.0   0.1-    240109 L01  0.6+  0.2-    240111 O18  0.4+  0.1-
240108 F51  0.1+  0.0     240109 L01  0.2-  0.3+    240111 O18  0.2-  0.2+
240109 K88  0.1+  0.3-    240109 L01  0.1-  0.0     240113 291  0.3-  0.2+
240109 K88  0.4-  0.3+    240109 K88  0.5-  0.4+    240113 291  0.1-  0.1+
240109 K88  0.6+  0.8+    240109 K88  1.0-  0.2+    240113 291  0.1-  0.1-
240109 K88  0.4+  0.4-    240109 K88  0.0   0.5-
Ephemeris:
2024 AV2                 a,e,i = 1.00, 0.25, 6                   q = 0.7487
Date    TT    R. A. (2000) Decl.     Delta      r    Elong.  Phase     V
2023 12 14    17 34 45.6 -45 03 39   0.08692 0.9045    22.0   155.9    30.9
...
2023 12 29    14 54 45.3 -44 45 56   0.01742 0.9719    48.3   131.0    23.6
...
2024 01 06    07 53 02.8 +34 08 11   0.02473 1.0072   164.3    15.3    19.5
...
2024 01 12    06 59 30.9 +40 14 10   0.05207 1.0327   160.4    18.6    21.3
2024 01 13    06 55 22.6 +40 34 23   0.05681 1.0369   159.3    19.6    21.5
2024 01 14    06 51 53.1 +40 50 13   0.06159 1.0410   158.2    20.5    21.7
...
2024 01 20    06 39 34.0 +41 32 44   0.09101 1.0653   152.2    25.6    22.8
...
2024 01 28    06 35 01.7 +41 26 53   0.1322  1.0958   145.1    30.9    23.8
...
2024 02 12    06 42 23.6 +40 10 30   0.2162  1.1466   133.5    38.7    25.2
A. U. Tomatic                (C) Copyright 2024 MPC           M.P.E.C. 2024-A153
    
    
More information about the Iaude
mailing list